Torna al catalogo

NOAA 16 DEB

AttivoPO
NORAD 41708·DEBRIS·🇺🇸 United States

Lanciato Sep 21, 2000 da Vandenberg Space Force Base

Loading…

Prossimi Passaggi (prossime 24 ore)

TLE

AggiornatoSource: Space-Track

Epoca: Sep 14, 2026, 02:46 UTC

1 41708U 00055PN  26257.11565630  .00006261  00000-0  17337-2 0  9997
2 41708  98.8704  36.9916 0011072 218.4991 141.5411 14.46956282539828

Traccia NOAA 16 DEB in tempo reale con AllMySat

Download on the App Store